This is the latest recevied weather packets stored in our database for station/object SV9FBP. If no packets are shown the sender has not sent any weather packets the latest 10 day(s).
| Time | Temp. | Humidity | Pressure | Rain* | Wind** | Luminosity | Snow |
|---|---|---|---|---|---|---|---|
| 1778150567 | 24.44° C | 61% | 1018.2 hPa | 0 mm | - | - | - |
| 1778149665 | 23.33° C | 63% | 1018.4 hPa | 0 mm | - | - | - |
| 1778148763 | 22.22° C | 70% | 1018.6 hPa | 0 mm | - | - | - |
| 1778147861 | 21.67° C | 71% | 1018.7 hPa | 0 mm | - | - | - |
| 1778146958 | 21.67° C | 71% | 1018.8 hPa | 0 mm | - | - | - |
| 1778146057 | 21.67° C | 74% | 1018.9 hPa | 0 mm | - | - | - |
| 1778145155 | 21.11° C | 77% | 1018.7 hPa | 0 mm | - | - | - |
| 1778144252 | 21.11° C | 80% | 1018.4 hPa | 0 mm | - | - | - |
| 1778143350 | 20.56° C | 80% | 1018.4 hPa | 0 mm | - | - | - |
| 1778142447 | 20.56° C | 80% | 1018.6 hPa | 0 mm | - | - | - |
| 1778141546 | 20° C | 78% | 1018.6 hPa | 0 mm | - | - | - |
| 1778140644 | 20° C | 77% | 1018.2 hPa | 0 mm | - | - | - |
| 1778139742 | 20° C | 76% | 1018.3 hPa | 0 mm | - | - | - |
| 1778138839 | 19.44° C | 74% | 1018 hPa | 0 mm | - | - | - |
| 1778137937 | 19.44° C | 73% | 1017.8 hPa | 0 mm | - | - | - |
| 1778137035 | 19.44° C | 72% | 1017.6 hPa | 0 mm | - | - | - |
| 1778136134 | 18.89° C | 72% | 1017.4 hPa | 0 mm | - | - | - |
| 1778135230 | 18.89° C | 72% | 1017.6 hPa | 0 mm | - | - | - |
| 1778134329 | 17.78° C | 72% | 1017.3 hPa | 0 mm | - | - | - |
| 1778133427 | 17.22° C | 78% | 1017.1 hPa | 0 mm | - | - | - |
| 1778132525 | 17.22° C | 77% | 1017.2 hPa | 0 mm | - | - | - |
| 1778131622 | 16.67° C | 74% | 1017.1 hPa | 0 mm | - | - | - |
| 1778130721 | 15.56° C | 73% | 1016.9 hPa | 0 mm | - | - | - |
| 1778129819 | 15° C | 72% | 1016.9 hPa | 0 mm | - | - | - |
| 1778128915 | 14.44° C | 72% | 1016.6 hPa | 0 mm | - | - | - |
* Rain latest hour (hover to see other rain measurements)
** Current wind speed in m/s (hover to see current wind gust speed)